STARLINK-32747, 62600

Orbit data source: Space-Track

STARLINK-32747, 62600 is a payload satellite owned by SpaceX/Seattle (US) in LEO that was launched on Mon, 13 Jan 2025 UTC via an FALCON 9 launch vehicle from the Air Force Eastern Test Range (AFETR). Payload-class satellites include a variety of spacecraft equipped with specific instruments for various scientific and technological missions. These include communications satellites like Starlink; space stations such as the ISS; scientific satellites like the Hubble; Earth observation satellites from companies like Planet Labs, Umbra, and HawkEye 360; GPS; miniature CubeSats for education and research; and military/defense satellites.

Loading next visibility...
Identifier
62600, 2025-008P
Orbit
LEO
Country
Flag of USUS
Related business
Manufacturer
SpaceX/Seattle
Mission
Operational Commercial Communications
Bus & Motor
STARLINK V2M, Unknown motor
Mass
730 kg wet, ~700 kg dry
Launch date (UTC)
2025-01-13 (2 years ago)
Launch vehicle
FALCON 9
Launch site
Air Force Eastern Test Range (AFETR)
Object type
Payload
Rocket body
Debris
Shape & HBR
Box + 2 Pan, 17.7 m
Radar Cross Section
33.884 m², Large (>1 m²)

Expand to show TLE details & history
Last TLE update: 21 hours ago

TLE from 21 hours ago
0 STARLINK-32747
1 62600U 25008P   26227.07556682  .00004658  00000-0  17866-3 0  9991
2 62600  42.9986 103.7739 0001040 276.1722  83.9011 15.27584694 89781
Epoch: 2026-08-15T01:48Z
TLE epoch observation values (Epoch: 2026-08-15T01:48:48.973Z)
Latitude
-0.00002°
Longitude
113.07818°
Altitude
482.735 km
Speed
7.626 km/s
True Right ascension
06h 55m 05s
True Declination
0° 00' 00"
Sunlit
Object was in daylight at epoch
Visualization orbit readout
Latitude
Unknown
Longitude
Unknown
Altitude
Unknown
Speed
Unknown
Apparent Right ascension
Unknown
Apparent Declination
Unknown
Sunlit
N/A
Visualization observer readout
Local Sidereal Time
13:16:38
Azimuth
Unknown
Elevation
Unknown
Doppler factor
Unknown
Orbital elements
Apogee altitude
485.694 km
Perigee altitude
484.267 km
Semi-major axis
6,863.117 km
Eccentricity
0.0001
Inclination
42.9986°
RAAN
103.7739°
Arg. of periapsis
276.1722°
True anomaly
83.91295°
Mean anomaly
83.9011°
Eccentric anomaly
83.90703°
Mean motion
3.81734 °/min
Orbital period
94.31 mins
BSTAR
0.00017866
Loading maneuver chart data...
Computing Atmospheric mass density...
Loading historical data...
Loading historical data...
Loading historical data...
Loading historical data...
Loading historical data...
Loading historical data...
Loading historical data...

Documentation

Showing up to 5 results
|